Location: ???? ?????????
(44.3677°N, 135.2344°E)
Time: 14:33:32
(UTC+00:00)

Cosmos 1356 Rocket - Pass Details

Date: 19 May 2025
Orbit: 517 x 566 km, 81.2° (Epoch: 20 June)

Event Time Altitude Azimuth Distance (km) Brightness Sun altitude
Exits shadow 12:30:55 34° 177° (S) 933 4.0 -17.7°
Maximum altitude 12:32:36 75° 98° (E) 590 3.3 -17.9°
Drops below altitude 10° 12:36:42 10° 14° (NNE) 1,862 6.6 -18.3°
Sets 12:38:53 0° 13° (NNE) 2,757 7.6 -18.6°
